home / openregs

legislation_cosponsors

Cosponsors for tracked legislation. Distinguishes original cosponsors (signed on at introduction) from later additions. Linked to congress_members via bioguide_id.

Data license: Public Domain (U.S. Government data) · Data source: Federal Register API & Regulations.gov API

36 rows where bill_id = "103-hr-4803" sorted by sponsorship_date descending

✎ View and edit SQL

This data as json, CSV (advanced)

Suggested facets: party, state, sponsorship_date, sponsorship_date (date)

is_original_cosponsor 2

  • 1 21
  • 0 15
Link bill_id bioguide_id full_name party state sponsorship_date ▲ is_original_cosponsor
103-hr-4803,L000287 Fair Pay Act of 1994 103-hr-4803 L000287 Rep. Lewis, John [D-GA-5] D GA 1994-10-03 0
103-hr-4803,S001115 Fair Pay Act of 1994 103-hr-4803 S001115 Rep. Swift, Al [D-WA-2] D WA 1994-10-03 0
103-hr-4803,K000262 Fair Pay Act of 1994 103-hr-4803 K000262 Rep. Klein, Herbert C. [D-NJ-8] D NJ 1994-09-19 0
103-hr-4803,S001040 Fair Pay Act of 1994 103-hr-4803 S001040 Rep. Studds, Gerry E. [D-MA-10] D MA 1994-09-19 0
103-hr-4803,G000212 Fair Pay Act of 1994 103-hr-4803 G000212 Rep. Gilman, Benjamin A. [R-NY-20] R NY 1994-08-10 0
103-hr-4803,A000210 Fair Pay Act of 1994 103-hr-4803 A000210 Rep. Andrews, Robert E. [D-NJ-1] D NJ 1994-08-10 0
103-hr-4803,P000099 Fair Pay Act of 1994 103-hr-4803 P000099 Rep. Pastor, Ed [D-AZ-2] D AZ 1994-08-10 0
103-hr-4803,M000797 Fair Pay Act of 1994 103-hr-4803 M000797 Rep. Mink, Patsy T. [D-HI-2] D HI 1994-07-28 0
103-hr-4803,U000017 Fair Pay Act of 1994 103-hr-4803 U000017 Rep. Unsoeld, Jolene [D-WA-3] D WA 1994-07-28 0
103-hr-4803,H000324 Fair Pay Act of 1994 103-hr-4803 H000324 Rep. Hastings, Alcee L. [D-FL-23] D FL 1994-07-28 0
103-hr-4803,L000480 Fair Pay Act of 1994 103-hr-4803 L000480 Rep. Lowey, Nita M. [D-NY-18] D NY 1994-07-28 0
103-hr-4803,W000207 Fair Pay Act of 1994 103-hr-4803 W000207 Rep. Watt, Melvin L. [D-NC-12] D NC 1994-07-28 0
103-hr-4803,E000064 Fair Pay Act of 1994 103-hr-4803 E000064 Rep. Edwards, Don [D-CA-16] D CA 1994-07-28 0
103-hr-4803,F000116 Fair Pay Act of 1994 103-hr-4803 F000116 Rep. Filner, Bob [D-CA-50] D CA 1994-07-28 0
103-hr-4803,F000339 Fair Pay Act of 1994 103-hr-4803 F000339 Rep. Frank, Barney [D-MA-4] D MA 1994-07-28 0
103-hr-4803,O000159 Fair Pay Act of 1994 103-hr-4803 O000159 Rep. Owens, Major R. [D-NY-11] D NY 1994-07-20 1
103-hr-4803,T000405 Fair Pay Act of 1994 103-hr-4803 T000405 Rep. Tucker, Walter R., III [D-CA-37] D CA 1994-07-20 1
103-hr-4803,C000633 Fair Pay Act of 1994 103-hr-4803 C000633 Rep. Collins, Barbara-Rose [D-MI-15] D MI 1994-07-20 1
103-hr-4803,G000272 Fair Pay Act of 1994 103-hr-4803 G000272 Rep. Gonzalez, Henry B. [D-TX-20] D TX 1994-07-20 1
103-hr-4803,R000486 Fair Pay Act of 1994 103-hr-4803 R000486 Rep. Roybal-Allard, Lucille [D-CA-33] D CA 1994-07-20 1
103-hr-4803,D000222 Fair Pay Act of 1994 103-hr-4803 D000222 Rep. Dellums, Ronald V. [D-CA-9] D CA 1994-07-20 1
103-hr-4803,J000126 Fair Pay Act of 1994 103-hr-4803 J000126 Rep. Johnson, Eddie Bernice [D-TX-30] D TX 1994-07-20 1
103-hr-4803,M000523 Fair Pay Act of 1994 103-hr-4803 M000523 Rep. McKinney, Cynthia A. [D-GA-11] D GA 1994-07-20 1
103-hr-4803,B000911 Fair Pay Act of 1994 103-hr-4803 B000911 Rep. Brown, Corrine [D-FL-3] D FL 1994-07-20 1
103-hr-4803,M000794 Fair Pay Act of 1994 103-hr-4803 M000794 Rep. Mineta, Norman Y. [D-CA-15] D CA 1994-07-20 1
103-hr-4803,V000081 Fair Pay Act of 1994 103-hr-4803 V000081 Rep. Velazquez, Nydia M. [D-NY-12] D NY 1994-07-20 1
103-hr-4803,H000627 Fair Pay Act of 1994 103-hr-4803 H000627 Rep. Hinchey, Maurice D. [D-NY-26] D NY 1994-07-20 1
103-hr-4803,S000142 Fair Pay Act of 1994 103-hr-4803 S000142 Rep. Schroeder, Patricia [D-CO-1] D CO 1994-07-20 1
103-hr-4803,N000002 Fair Pay Act of 1994 103-hr-4803 N000002 Rep. Nadler, Jerrold [D-NY-8] D NY 1994-07-20 1
103-hr-4803,M000129 Fair Pay Act of 1994 103-hr-4803 M000129 Rep. Margolies-Mezvinsky, Marjorie [D-PA-13] D PA 1994-07-20 1
103-hr-4803,S000248 Fair Pay Act of 1994 103-hr-4803 S000248 Rep. Serrano, Jose E. [D-NY-16] D NY 1994-07-20 1
103-hr-4803,M000087 Fair Pay Act of 1994 103-hr-4803 M000087 Rep. Maloney, Carolyn B. [D-NY-14] D NY 1994-07-20 1
103-hr-4803,M000206 Fair Pay Act of 1994 103-hr-4803 M000206 Rep. Martinez, Matthew G. [D-CA-31] D CA 1994-07-20 1
103-hr-4803,M000342 Fair Pay Act of 1994 103-hr-4803 M000342 Rep. McCloskey, Frank [D-IN-8] D IN 1994-07-20 1
103-hr-4803,G000410 Fair Pay Act of 1994 103-hr-4803 G000410 Rep. Green, Gene [D-TX-29] D TX 1994-07-20 1
103-hr-4803,K000118 Fair Pay Act of 1994 103-hr-4803 K000118 Rep. Kennelly, Barbara B. [D-CT-1] D CT 1994-07-20 1

Advanced export

JSON shape: default, array, newline-delimited, object

CSV options:

CREATE TABLE legislation_cosponsors (
    bill_id TEXT NOT NULL REFERENCES legislation(bill_id),
    bioguide_id TEXT NOT NULL,
    full_name TEXT,
    party TEXT,
    state TEXT,
    sponsorship_date TEXT,
    is_original_cosponsor INTEGER,
    PRIMARY KEY (bill_id, bioguide_id)
);
CREATE INDEX idx_lc_bioguide ON legislation_cosponsors(bioguide_id);
CREATE INDEX idx_lc_bill ON legislation_cosponsors(bill_id);
CREATE INDEX idx_lc_original ON legislation_cosponsors(is_original_cosponsor);
Powered by Datasette · Queries took 7.414ms · Data license: Public Domain (U.S. Government data) · Data source: Federal Register API & Regulations.gov API